Location: 22
(39.7117°N, 89.5929°W)
Time: 15:45:46
(UTC-05:00)

Tiros 1 despin weight - Pass Details

Date: 11 August 2024
Orbit: 573 x 617 km, 48.2° (Epoch: 17 September)

Event Time Altitude Azimuth Distance (km) Brightness Sun altitude
Rises 23:05:30 0° 300° (WNW) 2,779 ? -28.9°
Reaches altitude 10° 23:07:47 10° 300° (WNW) 1,877 ? -29.2°
Enters shadow 23:10:04 31° 297° (WNW) 1,016 ? -29.4°
